TimeCDT,TemperatureF,Dew PointF,Humidity,Sea Level PressureIn,VisibilityMPH,Wind Direction,Wind SpeedMPH,Gust SpeedMPH,PrecipitationIn,Events,Conditions,WindDirDegrees,DateUTC
12:54 AM,33.1,28.0,82,30.00,10.0,WNW,9.2,-,N/A,,Mostly Cloudy,300,2013-04-20 05:54:00
1:54 AM,32.0,24.1,73,30.02,10.0,NW,12.7,-,N/A,,Scattered Clouds,310,2013-04-20 06:54:00
2:54 AM,30.9,24.1,76,30.04,10.0,NW,6.9,-,N/A,,Partly Cloudy,320,2013-04-20 07:54:00
3:54 AM,30.0,23.0,75,30.07,10.0,NW,9.2,-,N/A,,Clear,320,2013-04-20 08:54:00
4:54 AM,30.0,21.9,72,30.09,10.0,NW,5.8,-,N/A,,Clear,320,2013-04-20 09:54:00
5:54 AM,28.0,21.0,75,30.14,10.0,NW,4.6,-,N/A,,Clear,310,2013-04-20 10:54:00
6:54 AM,30.0,21.9,72,30.17,10.0,WNW,4.6,-,N/A,,Clear,300,2013-04-20 11:54:00
7:54 AM,33.1,21.9,64,30.20,10.0,NW,6.9,-,N/A,,Partly Cloudy,320,2013-04-20 12:54:00
8:54 AM,36.0,19.0,50,30.23,10.0,NW,9.2,-,N/A,,Clear,320,2013-04-20 13:54:00
9:54 AM,37.9,19.0,47,30.26,10.0,NW,8.1,16.1,N/A,,Clear,310,2013-04-20 14:54:00
10:54 AM,39.0,19.0,45,30.30,10.0,Variable,4.6,-,N/A,,Partly Cloudy,0,2013-04-20 15:54:00
11:54 AM,39.9,19.0,43,30.30,10.0,WNW,6.9,19.6,N/A,,Scattered Clouds,300,2013-04-20 16:54:00
12:54 PM,43.0,19.0,38,30.30,10.0,NW,12.7,16.1,N/A,,Mostly Cloudy,310,2013-04-20 17:54:00
1:54 PM,44.1,21.0,40,30.31,10.0,Variable,6.9,-,N/A,,Mostly Cloudy,0,2013-04-20 18:54:00
2:54 PM,45.0,19.0,36,30.32,10.0,NW,8.1,-,N/A,,Mostly Cloudy,320,2013-04-20 19:54:00
3:54 PM,46.9,19.0,33,30.32,10.0,NNW,10.4,-,N/A,,Mostly Cloudy,340,2013-04-20 20:54:00
4:54 PM,44.1,18.0,35,30.33,10.0,NW,4.6,-,N/A,,Mostly Cloudy,310,2013-04-20 21:54:00
5:54 PM,45.0,18.0,34,30.34,10.0,North,6.9,-,N/A,,Partly Cloudy,10,2013-04-20 22:54:00
6:54 PM,44.1,18.0,35,30.34,10.0,Calm,Calm,-,N/A,,Scattered Clouds,0,2013-04-20 23:54:00
7:54 PM,39.9,18.0,41,30.37,10.0,Calm,Calm,-,N/A,,Partly Cloudy,0,2013-04-21 00:54:00
8:54 PM,37.0,23.0,57,30.40,10.0,East,4.6,-,N/A,,Partly Cloudy,80,2013-04-21 01:54:00
9:54 PM,34.0,23.0,64,30.41,10.0,ESE,4.6,-,N/A,,Partly Cloudy,110,2013-04-21 02:54:00
10:54 PM,35.1,21.0,57,30.42,10.0,ESE,5.8,-,N/A,,Partly Cloudy,120,2013-04-21 03:54:00
11:54 PM,34.0,25.0,70,30.43,10.0,SE,9.2,-,N/A,,Partly Cloudy,130,2013-04-21 04:54:00